Regional Weather Roundup
Issued by NWS

Home | Current Version | Previous Version | Text Only | Print | Product List | Glossary Off
Versions: 1 2 3 4 5 6 7 8 9 10 11 12 13 14 15 16 17 18 19 20 21 22 23 24 25 26 27 28 29 30 31 32 33 34 35 36 37 38 39 40 41 42 43 44 45 46 47 48 49 50

000
ASUS43 KLSX 071407
RWRMO

WEATHER SUMMARY FOR MISSOURI
NATIONAL WEATHER SERVICE SPRINGFIELD MO
900 AM CDT TUE JUL 07 2015

NOTE: "FAIR" INDICATES FEW OR NO CLOUDS BELOW 12,000 FEET WITH NO
       SIGNIFICANT WEATHER AND/OR OBSTRUCTIONS TO VISIBILITY.
       CURRENT SKY AND/OR WEATHER CONDITIONS ARE NOT AVAILABLE FOR
       CHILLICOTHE AND FARMINGTON.

MOZ001>031-035>038-043-044-053-054-071500-
...NORTHERN AND WESTERN MISSOURI...

CITY           SKY/WX    TMP DP  RH WIND       PRES   REMARKS
KANSAS CTY INT CLOUDY    63  59  87 N15       30.05S
KANSAS C DTWN  CLOUDY    66  62  87 N12       30.04R FOG
LEE`S SUMMIT   CLOUDY    64  61  90 N9        30.04S FOG
ST JOSEPH      CLOUDY    63  56  78 MISG      30.08R
CHILLICOTHE      N/A     65  60  84 N9        30.05R
KIRKSVILLE     PTSUNNY   65  58  78 N15G24    30.02R HAZE

$$
MOZ066>068-077>081-088>096-101>105-071500-
...SOUTHWEST MISSOURI...

CITY           SKY/WX    TMP DP  RH WIND       PRES   REMARKS
SPRINGFIELD    CLOUDY    75  71  87 SW5       29.98R
JOPLIN         CLOUDY    73  71  93 VRB3      29.98R

$$
MOZ032>034-039>042-045>050-055>058-069>072-071500-
...CENTRAL MISSOURI...

CITY           SKY/WX    TMP DP  RH WIND       PRES   REMARKS
COLUMBIA       LGT RAIN  65  64  97 N10       29.99R VSB 1
ROLLA          CLOUDY    71  70  96 SW3       29.95S
SEDALIA        CLOUDY    64  59  83 N13G20    30.02R HAZE
WHITEMAN AFB   CLOUDY    63  58  83 N14       30.01R
WARRENSBURG    CLOUDY    63  55  77 N16G24    30.03R HAZE
OSAGE BEACH    CLOUDY    72  70  94 CALM      29.96R

$$
MOZ051-052-059>065-071500-
...EAST CENTRAL MISSOURI...

CITY           SKY/WX    TMP DP  RH WIND       PRES   REMARKS
ST LOUIS INTL  CLOUDY    75  71  87 SW10      29.94R
SPIRIT OF STL  CLOUDY    74  73  97 SW7       29.93R FOG
ST CHARLES     CLOUDY    74  72  93 W9        29.92R

$$
MOZ072>076-082>087-097>100-106>115-071500-
...SOUTH CENTRAL AND SOUTHEAST MISSOURI...

CITY           SKY/WX    TMP DP  RH WIND       PRES   REMARKS
CAPE GIRARDEAU CLOUDY    78  75  90 SW13      29.96R
FARMINGTON     CLOUDY    72  70  94 SW6       30.02R
POPLAR BLUFF   CLOUDY    79  74  84 SW14      29.96S
WEST PLAINS    CLOUDY    77  71  82 SW5       30.00R

$$



USA.gov is the U.S. government's official web portal to all federal, state and local government web resources and services.